This demonstration page uses our WeatherBlox Daily Observations layout. Learn more.

Left ArrowRight Arrow

Hourly Observations for July 17, 2019

Temp ( °F °C ) Dew Point ( °F °C ) Humidity (%) Winds ( mph kmh ) Pressure ( in mb ) Visibility ( mi km ) Precip ( " mm )
12:53 am 00:53 Clear 73 22.8 71 21.7 94 94 N N/A 29.94 1014 10 16 0.00 0.00
1:39 am 01:39 Mostly Cloudy 74 23.3 72 22.2 94 94 VRB 5 7 29.97 1015 10 16 N/A
1:53 am 01:53 Cloudy 74 23.3 72 22.2 94 94 SSW 6 9 29.94 1014 10 16 N/A
2:32 am 02:32 Cloudy 74 23.3 71 21.7 91 91 VRB 5 7 29.94 1014 10 16 N/A
2:53 am 02:53 Cloudy 74 23.3 71 21.7 91 91 VRB 7 11 29.92 1013 10 16 N/A
3:33 am 03:33 Mostly Cloudy 74 23.3 71 21.7 91 91 VRB 3 6 29.94 1014 10 16 N/A
3:53 am 03:53 Cloudy 74 23.3 71 21.7 91 91 VRB 5 7 29.90 1013 10 16 N/A
4:53 am 04:53 Cloudy with Light Rain 74 23.3 71 21.7 91 91 VRB 5 7 29.90 1013 6 10 0.00 0.00
5:05 am 05:05 Cloudy 74 23.3 72 22.2 94 94 VRB 5 7 29.91 1013 10 16 0.00 0.00
5:15 am 05:15 Cloudy with Heavy Rain 73 22.8 72 22.2 96 96 VRB 5 7 29.91 1013 2 3 0.06 1.52
5:21 am 05:21 Cloudy with Heavy Rain 73 22.8 72 22.2 96 96 S 7 11 29.91 1013 1 1 0.13 3.30
5:23 am 05:23 Cloudy with Heavy Rain 73 22.8 72 22.2 96 96 S 7 11 29.91 1013 1 2 0.16 4.06
5:29 am 05:29 Cloudy with Heavy Rain 73 22.8 72 22.2 96 96 undefined N/A 29.91 1013 2 3 0.20 5.08
5:39 am 05:39 Cloudy with Rain 73 22.8 72 22.2 96 96 S 6 9 29.91 1013 3 5 0.23 5.84
5:46 am 05:46 Cloudy with Rain 73 22.8 72 22.2 96 96 VRB 5 7 29.91 1013 4 6 0.24 6.10
5:53 am 05:53 Cloudy with Light Rain 73 22.8 72 22.2 96 96 VRB 6 9 29.90 1012 8 13 0.24 6.10
6:53 am 06:53 Cloudy with Light Rain 73 22.8 72 22.2 96 96 VRB 5 7 29.90 1013 7 11 0.01 0.25
7:32 am 07:32 Cloudy 73 22.8 72 22.2 96 96 WSW 5 7 29.91 1013 10 16 0.00 0.00
7:53 am 07:53 Cloudy with Light Rain 74 23.3 73 22.8 97 97 VRB 5 7 29.91 1013 5 8 0.00 0.00
8:53 am 08:53 Cloudy 75 23.9 73 22.8 94 94 VRB 6 9 29.92 1013 10 16 0.01 0.25
9:53 am 09:53 Cloudy with Rain 76 24.4 74 23.3 94 94 WSW 6 9 29.93 1014 4 6 0.01 0.25
9:55 am 09:55 Cloudy with Rain 75 23.9 74 23.3 96 96 WSW 7 11 29.94 1014 3 4 0.01 0.25
9:58 am 09:58 Cloudy with Rain 75 23.9 74 23.3 96 96 VRB 6 9 29.94 1014 2 3 0.01 0.25
10:04 am 10:04 Cloudy with Light Rain 75 23.9 74 23.3 96 96 SW 7 11 29.94 1014 3 5 0.01 0.25
10:43 am 10:43 Cloudy with Light Rain 77 25 76 24.4 96 96 WSW 6 9 29.94 1014 6 10 0.04 1.02
10:50 am 10:50 Cloudy 79 26 75 24 89 89 WSW 6 9 29.91 1013 10 16 0.04 1.02
10:53 am 10:53 Mostly Cloudy 78 25.6 76 24.4 93 93 VRB 5 7 29.93 1013 10 16 0.04 1.02
11:20 am 11:20 Partly Cloudy 77 25 75 23.9 94 94 WSW 5 7 29.94 1014 10 16 0.00 0.00
11:25 am 11:25 Mostly Cloudy 77 25 75 23.9 94 94 VRB 7 11 29.94 1014 10 16 0.00 0.00
11:40 am 11:40 Partly Cloudy 76 24.4 73 22.8 91 91 WSW 7 11 29.97 1015 10 16 0.00 0.00
11:53 am 11:53 Partly Cloudy 75 23.9 73 22.8 94 94 VRB 7 11 29.94 1014 10 16 0.00 0.00
12:53 pm 12:53 Mostly Cloudy 81 27.2 76 24.4 85 85 SW 6 9 29.94 1014 10 16 N/A
1:44 pm 13:44 Mostly Cloudy with Heavy Rain 79 26.1 76 24.4 90 90 SW 9 15 29.91 1013 1 2 0.03 0.76
1:53 pm 13:53 Mostly Cloudy with Light Rain 78 25.6 75 23.9 90 90 SW 8 13 29.94 1014 2 3 0.06 1.52
2:00 pm 14:00 Partly Cloudy 81 27.2 77 25 88 88 VRB 6 9 29.91 1013 10 16 0.00 0.00
2:53 pm 14:53 Mostly Sunny 84 28.9 76 24.4 77 77 SW 7 11 29.92 1013 10 16 0.00 0.00
3:53 pm 15:53 Mostly Sunny 87 30.6 76 24.4 70 70 WSW 9 15 29.91 1013 10 16 N/A
4:53 pm 16:53 Sunny 88 31.1 75 23.9 66 66 W 8 13 29.89 1012 10 16 N/A
5:53 pm 17:53 Mostly Sunny 88 31.1 74 23.3 63 63 VRB 6 9 29.89 1012 10 16 N/A
6:53 pm 18:53 Mostly Sunny 85 29.4 73 22.8 68 68 W 10 17 29.90 1012 10 16 0.00 0.00
7:53 pm 19:53 Sunny 83 28.3 73 22.8 72 72 VRB 6 9 29.91 1013 10 16 N/A
8:53 pm 20:53 Mostly Sunny 80 26.7 74 23.3 82 82 N N/A 29.92 1013 10 16 N/A
9:53 pm 21:53 Clear 78 25.6 73 22.8 85 85 NNW 3 6 29.94 1014 10 16 N/A
10:53 pm 22:53 Mostly Clear 76 24.4 74 23.3 94 94 N N/A 29.95 1014 10 16 N/A
11:53 pm 23:53 Clear 74 23.3 73 22.8 97 97 N N/A 29.94 1014 10 16 N/A

Powered by AerisWeather